Regional Weather Roundup
Issued by NWS

Home | Current Version | Previous Version | Graphics & Text | Print | Product List | Glossary On
Versions: 1 2 3 4 5 6 7 8 9 10 11 12 13 14 15 16 17 18 19 20 21 22 23 24 25 26 27 28 29 30 31 32 33 34 35 36 37 38 39 40 41 42 43 44 45 46 47 48 49 50
000
ASUS43 KFSD 221102
RWRSD

WEATHER ROUNDUP FOR SOUTH DAKOTA
NATIONAL WEATHER SERVICE SIOUX FALLS SD
500 AM CST MON DEC 22 2014

NOTE: "FAIR" INDICATES FEW OR NO CLOUDS BELOW 12,000 FEET WITH NO
SIGNIFICANT WEATHER AND/OR OBSTRUCTIONS TO VISIBILITY.


SDZ001>005-009-010-012>017-221200-
NORTHWEST AND NORTH CENTRAL SOUTH DAKOTA

CITY           SKY/WX    TMP DP  RH WIND       PRES   REMARKS
BUFFALO          N/A     37  29  72 W24       29.43S
FAITH            N/A     37  32  82 NW15      29.46S
MOBRIDGE       CLOUDY    30  28  92 CALM      29.40F FOG
$$

SDZ012>016-024>037-041>051-057-063-072>074-221200-
SOUTHWEST AND SOUTH CENTRAL SOUTH DAKOTA

CITY           SKY/WX    TMP DP  RH WIND       PRES   REMARKS
RAPID CTY ARPT MOCLDY    41  25  53 NW21G31   29.52R
PIERRE         CLOUDY    36  34  92 W9        29.43S
CUSTER         CLOUDY    31  21  66 NW13G21   29.54R WCI  21
PHILIP         CLOUDY    39  34  82 NW15      29.49S
PINE RIDGE     CLOUDY    34  31  88 W6        29.58R WCI  29
WINNER         CLOUDY    38  36  92 W15       29.46S
$$

SDZ004>011-016>023-039-040-221200-
NORTHEAST SOUTH DAKOTA

CITY           SKY/WX    TMP DP  RH WIND       PRES   REMARKS
ABERDEEN       CLOUDY    35  33  92 S3        29.42F FOG
WATERTOWN      CLOUDY    36  35  96 S12       29.44S
SISSETON         N/A     35  35 100 SE12      29.45F WCI  27
$$

SDZ017-020-022-023-036>040-048>070-221200-
SOUTHEAST SOUTH DAKOTA

CITY           SKY/WX    TMP DP  RH WIND       PRES   REMARKS
SIOUX FALLS    LGT RAIN  40  39  97 S10       29.47F FOG
HURON          CLOUDY    35  34  96 S6        29.44S FOG
MITCHELL       LGT RAIN  37  37 100 S7        29.45S
YANKTON        CLOUDY    41  39  93 S8        29.47F
$$

ABBREVIATIONS USED IN REMARKS
   TC - TEMPERATURE IN CELSIUS
  WCI - WIND CHILL INDEX
   HX - HEAT INDEX
  VSB - VISIBILITY



USA.gov is the U.S. government's official web portal to all federal, state and local government web resources and services.